Location: Newark
(7.0858°N, 171.3717°E)
Time: 17:35:10
(UTC+00:00)

Altair - Pass Details

Date: 03 December 2020
Orbit: 1501 x 1682 km, 47.2° (Epoch: 20 January)

Event Time Altitude Azimuth Distance (km) Brightness Sun altitude
Exits shadow 15:21:18 41° 68° (ENE) 2,107 8.3 -44.9°
Drops below altitude 10° 15:28:44 10° 116° (ESE) 3,761 10.1 -43.2°
Sets 15:32:04 0° 123° (ESE) 4,773 10.9 -42.4°
